Location: Gouy
(50.0008°N, 3.2556°E)
Time: 02:48:35
(UTC+00:00)

Cosmos 1782 Rocket - Pass Details

Date: 22 August 2024
Orbit: 603 x 628 km, 82.5° (Epoch: 11 September)

Event Time Altitude Azimuth Distance (km) Brightness Sun altitude
Exits shadow 01:48:52 - 130° (SE) 2,171 6.3 -23.1°
Reaches altitude 10° 01:49:29 10° 124° (SE) 2,002 6.1 -23.0°
Maximum altitude 01:52:19 17° 84° (E) 1,601 6.1 -22.8°
Drops below altitude 10° 01:55:10 10° 44° (NE) 2,016 7.3 -22.5°
Sets 01:58:04 0° 24° (NNE) 2,930 8.5 -22.3°
